When you browse on this site, cookies collect data to enhance your experience and personalize the content and advertising you see.
Visit our Privacy Policy to learn more. By continuing to use the site, you agree to this use of cookies and data.
EN

Hourly Weather Canelas

Today, 23 September, Wednesday

Time Temperature Precipitation Wind Pressure Humidity
00:00 +19°C° 0.6 mm 5 mps 748 mmHg 89%
01:00 +19°C° 0.6 mm 5 mps 748 mmHg 89%
02:00 +19°C° 0.6 mm 5 mps 747 mmHg 89%
03:00 +19°C° 0.4 mm 4 mps 748 mmHg 89%
04:00 +19°C° 0.4 mm 4 mps 748 mmHg 89%
05:00 +19°C° 0 mm 2 mps 748 mmHg 90%
06:00 +19°C° 0.4 mm 2 mps 748 mmHg 89%
07:00 +19°C° 0.4 mm 2 mps 748 mmHg 88%
08:00 +20°C° 0.4 mm 2 mps 748 mmHg 87%
09:00 +21°C° 0.1 mm 2 mps 749 mmHg 81%
10:00 +23°C° 0.1 mm 2 mps 749 mmHg 76%
11:00 +23°C° 0 mm 2 mps 749 mmHg 72%
12:00 +23°C° 0.1 mm 2 mps 749 mmHg 71%
13:00 +22°C° 0.1 mm 3 mps 749 mmHg 70%
14:00 +22°C° 0.1 mm 4 mps 749 mmHg 68%
15:00 +21°C° 0 mm 3 mps 749 mmHg 71%
16:00 +20°C° 0 mm 2 mps 749 mmHg 73%
17:00 +20°C° 0 mm 2 mps 749 mmHg 76%
18:00 +19°C° 0 mm 2 mps 749 mmHg 79%
19:00 +19°C° 0 mm 1 mps 750 mmHg 83%
20:00 +18°C° 0 mm 1 mps 750 mmHg 86%
21:00 +18°C° 0 mm 1 mps 750 mmHg 86%
22:00 +18°C° 0 mm 1 mps 750 mmHg 86%
23:00 +15°C° 0 mm 0 mps 750 mmHg 86%

Tomorrow, 24 September, Thursday

Time Temperature Precipitation Wind Pressure Humidity
00:00 +15°C° 0 mm 0 mps 750 mmHg 86%
01:00 +15°C° 0 mm 0 mps 750 mmHg 86%
02:00 +15°C° 0 mm 0 mps 750 mmHg 86%
03:00 +15°C° 0 mm 0 mps 750 mmHg 86%
04:00 +16°C° 0 mm 1 mps 750 mmHg 86%
05:00 +16°C° 0 mm 1 mps 750 mmHg 85%
06:00 +18°C° 0 mm 1 mps 751 mmHg 83%
07:00 +18°C° 0 mm 2 mps 751 mmHg 80%
08:00 +18°C° 0 mm 2 mps 752 mmHg 77%
09:00 +19°C° 0.1 mm 3 mps 752 mmHg 73%
10:00 +19°C° 0.1 mm 3 mps 752 mmHg 70%
11:00 +20°C° 0.1 mm 3 mps 753 mmHg 66%
12:00 +20°C° 0 mm 4 mps 753 mmHg 61%
13:00 +20°C° 0 mm 4 mps 752 mmHg 56%
14:00 +21°C° 0 mm 5 mps 752 mmHg 51%
15:00 +20°C° 0 mm 4 mps 753 mmHg 57%
16:00 +19°C° 0 mm 4 mps 753 mmHg 63%
17:00 +18°C° 0 mm 3 mps 753 mmHg 69%
18:00 +17°C° 0.1 mm 3 mps 754 mmHg 73%
19:00 +16°C° 0.1 mm 3 mps 754 mmHg 77%
20:00 +16°C° 0.1 mm 3 mps 755 mmHg 81%
21:00 +15°C° 0 mm 4 mps 755 mmHg 81%
22:00 +14°C° 0 mm 4 mps 756 mmHg 81%
23:00 +14°C° 0 mm 4 mps 756 mmHg 81%

Day after tomorrow, 25 September, Friday

Time Temperature Precipitation Wind Pressure Humidity
00:00 +14°C° 0 mm 4 mps 756 mmHg 81%
01:00 +13°C° 0 mm 4 mps 756 mmHg 81%
02:00 +13°C° 0 mm 4 mps 756 mmHg 81%
03:00 +13°C° 0 mm 4 mps 756 mmHg 80%
04:00 +12°C° 0 mm 4 mps 757 mmHg 79%
05:00 +12°C° 0 mm 4 mps 757 mmHg 78%
06:00 +13°C° 0 mm 4 mps 758 mmHg 71%
07:00 +14°C° 0 mm 4 mps 758 mmHg 64%
08:00 +15°C° 0 mm 4 mps 758 mmHg 57%
09:00 +16°C° 0 mm 5 mps 759 mmHg 53%
10:00 +17°C° 0 mm 5 mps 759 mmHg 50%
11:00 +20°C° 0 mm 5 mps 759 mmHg 46%
12:00 +20°C° 0 mm 6 mps 759 mmHg 46%
13:00 +20°C° 0 mm 6 mps 759 mmHg 46%
14:00 +21°C° 0 mm 7 mps 759 mmHg 45%
15:00 +20°C° 0 mm 7 mps 759 mmHg 49%
16:00 +18°C° 0 mm 7 mps 758 mmHg 52%
17:00 +17°C° 0 mm 6 mps 758 mmHg 56%
18:00 +16°C° 0 mm 6 mps 759 mmHg 59%
19:00 +15°C° 0 mm 6 mps 759 mmHg 61%
20:00 +14°C° 0 mm 5 mps 760 mmHg 64%
21:00 +13°C° 0 mm 5 mps 760 mmHg 64%
22:00 +13°C° 0 mm 5 mps 760 mmHg 65%
23:00 +13°C° 0 mm 4 mps 760 mmHg 65%

26 September, Saturday

Time Temperature Precipitation Wind Pressure Humidity
00:00 +12°C° 0 mm 4 mps 759 mmHg 65%
01:00 +12°C° 0 mm 4 mps 759 mmHg 66%
02:00 +11°C° 0 mm 4 mps 758 mmHg 66%
03:00 +11°C° 0 mm 4 mps 758 mmHg 65%
04:00 +11°C° 0 mm 4 mps 758 mmHg 65%
05:00 +11°C° 0 mm 3 mps 758 mmHg 64%
06:00 +13°C° 0 mm 3 mps 758 mmHg 57%
07:00 +14°C° 0 mm 3 mps 758 mmHg 51%
08:00 +17°C° 0 mm 3 mps 758 mmHg 44%
09:00 +19°C° 0 mm 3 mps 758 mmHg 41%
10:00 +21°C° 0 mm 3 mps 758 mmHg 37%
11:00 +23°C° 0 mm 4 mps 758 mmHg 33%
12:00 +23°C° 0 mm 5 mps 757 mmHg 35%
13:00 +23°C° 0 mm 5 mps 757 mmHg 36%
14:00 +24°C° 0 mm 6 mps 756 mmHg 38%
15:00 +22°C° 0 mm 6 mps 756 mmHg 45%
16:00 +21°C° 0 mm 7 mps 756 mmHg 52%
17:00 +20°C° 0 mm 7 mps 756 mmHg 58%
18:00 +19°C° 0 mm 6 mps 756 mmHg 64%
19:00 +16°C° 0 mm 6 mps 756 mmHg 69%
20:00 +15°C° 0 mm 6 mps 756 mmHg 75%
21:00 +15°C° 0 mm 5 mps 756 mmHg 77%
22:00 +14°C° 0 mm 5 mps 756 mmHg 79%
23:00 +14°C° 0 mm 5 mps 755 mmHg 80%

27 September, Sunday

Time Temperature Precipitation Wind Pressure Humidity
00:00 +14°C° 0 mm 5 mps 755 mmHg 81%
01:00 +13°C° 0 mm 4 mps 755 mmHg 81%
02:00 +13°C° 0 mm 4 mps 754 mmHg 81%
03:00 +13°C° 0 mm 4 mps 754 mmHg 81%
04:00 +13°C° 0 mm 4 mps 754 mmHg 81%
05:00 +13°C° 0 mm 4 mps 754 mmHg 80%
06:00 +14°C° 0 mm 4 mps 754 mmHg 74%
07:00 +17°C° 0 mm 4 mps 754 mmHg 67%
08:00 +19°C° 0 mm 4 mps 754 mmHg 61%
09:00 +21°C° 0 mm 4 mps 754 mmHg 56%
10:00 +22°C° 0 mm 5 mps 754 mmHg 52%
11:00 +25°C° 0 mm 5 mps 753 mmHg 48%
12:00 +24°C° 0 mm 6 mps 753 mmHg 48%
13:00 +24°C° 0 mm 7 mps 752 mmHg 48%
14:00 +24°C° 0 mm 7 mps 752 mmHg 49%
15:00 +23°C° 0 mm 7 mps 752 mmHg 54%
16:00 +21°C° 0 mm 7 mps 752 mmHg 60%
17:00 +20°C° 0 mm 7 mps 752 mmHg 65%
18:00 +19°C° 0 mm 6 mps 752 mmHg 70%
19:00 +17°C° 0 mm 5 mps 752 mmHg 74%
20:00 +16°C° 0 mm 5 mps 753 mmHg 79%
21:00 +15°C° 0 mm 4 mps 753 mmHg 80%
22:00 +15°C° 0 mm 4 mps 753 mmHg 81%
23:00 +16°C° 0 mm 3 mps 753 mmHg 82%

28 September, Monday

Time Temperature Precipitation Wind Pressure Humidity
00:00 +14°C° 0 mm 3 mps 752 mmHg 82%
01:00 +14°C° 0 mm 3 mps 752 mmHg 83%
02:00 +14°C° 0 mm 3 mps 752 mmHg 83%
03:00 +14°C° 0 mm 3 mps 752 mmHg 83%
04:00 +14°C° 0 mm 3 mps 752 mmHg 83%
05:00 +14°C° 0 mm 2 mps 752 mmHg 82%
06:00 +16°C° 0 mm 2 mps 752 mmHg 74%
07:00 +18°C° 0 mm 2 mps 752 mmHg 66%
08:00 +20°C° 0 mm 2 mps 752 mmHg 58%
09:00 +22°C° 0 mm 3 mps 752 mmHg 52%
10:00 +25°C° 0 mm 3 mps 752 mmHg 47%
11:00 +27°C° 0 mm 4 mps 752 mmHg 41%
12:00 +27°C° 0 mm 5 mps 752 mmHg 40%
13:00 +27°C° 0 mm 5 mps 751 mmHg 39%
14:00 +27°C° 0 mm 6 mps 751 mmHg 39%
15:00 +26°C° 0 mm 6 mps 751 mmHg 45%
16:00 +23°C° 0 mm 6 mps 751 mmHg 51%
17:00 +22°C° 0 mm 6 mps 751 mmHg 57%
18:00 +21°C° 0 mm 5 mps 751 mmHg 59%
19:00 +20°C° 0 mm 4 mps 751 mmHg 61%
20:00 +19°C° 0 mm 4 mps 752 mmHg 63%
21:00 +19°C° 0 mm 3 mps 751 mmHg 62%
22:00 +19°C° 0 mm 3 mps 751 mmHg 61%
23:00 +19°C° 0 mm 3 mps 751 mmHg 60%
Show more